Tracking 18852 objects as of 23-Nov-2017
HD Live streaming from Space Station
objects crossing your sky now

FENGYUN 1C DEB

Track FENGYUN 1C DEB now!
10-day predictions


NORAD ID: 41011
Int'l Code: 1999-025EXR
Perigee: 547.1 km
Apogee: 1,070.5 km
Inclination: 99.2 °
Period: 100.9 minutes
Semi major axis: 7179 km
RCS: Unknown
Launch date: May 10, 1999
Source: People's Republic of China (PRC)
Launch site: Taiyaun Space Center, China (TSC)

Note: This is SATELLITE DEBRIS
aabbcc
Your satellite tracking list
Your tracking list is empty




NASA's NSSDC Master Catalog

Two Line Element Set (TLE):
1 41011U 99025EXR 17325.35068771  .00000533  00000-0  12221-3 0  9999
2 41011  99.2101 165.4562 0364513 257.0110  99.0139 14.27029633150620
Source of the keplerian elements: AFSPC